Location: Codford Saint Peter
(51.1597°N, 2.0531°W)
Time: 17:07:07
(UTC+00:00)

Envisat - Pass Details

Date: 04 February 2022
Orbit: 764 x 765 km, 98.2° (Epoch: 19 May)

Event Time Altitude Azimuth Distance (km) Brightness Sun altitude
Rises 03:41:33 0° 27° (NNE) 3,244 6.8 -37.3°
Reaches altitude 10° 03:44:45 10° 48° (NE) 2,312 6.1 -36.8°
Maximum altitude 03:47:55 16° 87° (E) 1,897 5.6 -36.4°
Drops below altitude 10° 03:51:05 10° 126° (SE) 2,302 5.8 -35.9°
Sets 03:54:15 0° 147° (SSE) 3,223 6.4 -35.4°
